Location: Hobi?a Gr?di?te
(45.4833°N, 22.7833°E)
Time: 05:28:15
(UTC+00:00)

Cosmos 1655 Rocket - Pass Details

Date: 28 January 2023
Orbit: 970 x 1006 km, 83.0° (Epoch: 29 March)

Event Time Altitude Azimuth Distance (km) Brightness Sun altitude
Rises 16:16:38 0° 355° (N) 3,708 6.9 -8.6°
Reaches altitude 10° 16:19:17 10° 1° (N) 2,750 6.2 -9.0°
Maximum altitude 16:25:22 49° 76° (ENE) 1,239 4.2 -10.0°
Drops below altitude 10° 16:31:22 10° 151° (SSE) 2,713 6.2 -11.1°
Sets 16:33:57 0° 156° (SSE) 3,653 6.9 -11.5°
